This is the latest recevied weather packets stored in our database for station/object K1WJY. If no packets are shown the sender has not sent any weather packets the latest 10 day(s).
| Time | Temp. | Humidity | Pressure | Rain* | Wind** | Luminosity | Snow |
|---|---|---|---|---|---|---|---|
| 1788034152 | 25° C | 45% | 1021.6 hPa | 0 mm | - | 400 W/m² | - |
| 1788033850 | 25.56° C | 45% | 1021.3 hPa | 0 mm | - | 414 W/m² | - |
| 1788033551 | 25.56° C | 43% | 1021.3 hPa | 0 mm | - | 432 W/m² | - |
| 1788033251 | 25° C | 44% | 1021.4 hPa | 0 mm | - | 425 W/m² | - |
| 1788032947 | 25.56° C | 43% | 1021.3 hPa | 0 mm | - | 429 W/m² | - |
| 1788032646 | 25.56° C | 42% | 1021.4 hPa | 0 mm | - | 444 W/m² | - |
| 1788032341 | 25.56° C | 44% | 1021.4 hPa | 0 mm | - | 462 W/m² | - |
| 1788032036 | 25.56° C | 44% | 1021.4 hPa | 0 mm | - | 462 W/m² | - |
| 1788031732 | 26.11° C | 44% | 1021.5 hPa | 0 mm | - | 469 W/m² | - |
| 1788031431 | 26.11° C | 43% | 1021.7 hPa | 0 mm | - | 473 W/m² | - |
| 1788031127 | 26.11° C | 45% | 1021.8 hPa | 0 mm | - | 462 W/m² | - |
| 1788030825 | 25.56° C | 43% | 1021.6 hPa | 0 mm | - | 487 W/m² | - |
| 1788030525 | 25.56° C | 45% | 1021.7 hPa | 0 mm | - | 498 W/m² | - |
| 1788030221 | 25° C | 44% | 1022 hPa | 0 mm | - | 502 W/m² | - |
| 1788029915 | 25.56° C | 44% | 1021.8 hPa | 0 mm | - | 518 W/m² | - |
| 1788029611 | 25° C | 44% | 1021.9 hPa | 0 mm | - | 530 W/m² | - |
| 1788029306 | 25.56° C | 43% | 1021.9 hPa | 0 mm | - | 538 W/m² | - |
| 1788029005 | 26.11° C | 43% | 1021.8 hPa | 0 mm | - | 553 W/m² | - |
| 1788028704 | 26.11° C | 42% | 1021.8 hPa | 0 mm | - | 567 W/m² | - |
| 1788028398 | 25.56° C | 44% | 1022 hPa | 0 mm | - | 572 W/m² | - |
| 1788028095 | 25° C | 44% | 1021.9 hPa | 0 mm | - | 581 W/m² | - |
| 1788027795 | 25° C | 45% | 1022.1 hPa | 0 mm | - | 577 W/m² | - |
| 1788027495 | 25.56° C | 44% | 1022.1 hPa | 0 mm | - | 582 W/m² | - |
| 1788027189 | 25.56° C | 44% | 1022.2 hPa | 0 mm | - | 594 W/m² | - |
| 1788026889 | 25.56° C | 44% | 1022.3 hPa | 0 mm | - | 613 W/m² | - |
* Rain latest hour (hover to see other rain measurements)
** Current wind speed in m/s (hover to see current wind gust speed)